Wetbulb
61.83 60.89 60.39 59.88 60.32 60.95 60.77 60.65 61.11 61.83 61.64 60.51 59.33 58.75 57.56 56.03 54.45 52.48 51.51 50.04 50.87 51.32
55.98 61.30 61.10 60.64 59.62 60.87 61.17 61.03 60.21 61.38 61.64 61.13 59.80 59.38 58.59 57.91 55.79 54.48 53.30 52.50 51.48 51.14
51.13 52.23 56.90 60.76 60.89 60.23 61.28 61.09 60.51 59.85 61.01 61.66 60.79 59.61 59.03 58.64 58.08 56.03 55.73 54.84 54.29 53.84
48.62 50.60 52.75 57.75 61.31 60.94 61.01 61.76 61.75 61.34 60.62 60.50 61.17 60.86 59.30 59.03 58.99 57.60 57.37 56.73 55.55 54.99
44.41 48.03 49.75 52.58 54.22 60.71 60.33 60.45 61.61 62.04 61.05 61.04 61.21 61.24 60.36 59.30 59.27 58.22 57.37 57.71 57.05 56.33
41.87 44.39 47.47 47.77 50.71 53.62 58.91 60.96 60.21 60.87 61.78 60.97 61.11 61.18 61.14 60.57 59.73 59.73 59.19 58.48 57.99 57.69
40.58 41.70 43.41 46.37 49.10 50.50 52.59 58.95 60.37 60.14 60.84 61.81 61.72 61.71 61.76 61.44 60.68 60.48 60.18 59.73 59.17 58.73
39.89 41.91 44.03 45.83 48.24 50.75 52.99 54.97 61.06 61.05 59.81 59.84 61.03 61.67 61.55 61.54 61.02 60.56 60.28 60.26 60.02 59.76
41.27 42.82 44.23 46.01 47.35 49.84 52.07 53.67 55.17 59.75 60.05 59.41 59.36 51.99 48.30 55.24 60.94 60.82 60.36 59.87 60.50 60.36
41.54 42.73 44.36 45.74 47.00 48.33 48.68 50.50 52.39 56.23 59.12 59.53 59.72 49.21 47.58 46.31 59.10 60.54 60.53 60.29 60.11 59.56
41.39 42.00 43.64 45.53 47.23 48.41 49.19 50.36 53.59 56.02 58.22 58.66 59.18 48.12 46.31 45.77 54.74 58.62 60.08 60.64 60.53 59.94
41.90 43.17 44.53 46.01 47.64 49.32 50.22 51.15 53.50 57.86 58.41 58.22 58.85 43.05 40.57 44.10 53.62 56.30 57.58 59.73 60.73 60.69
42.28 42.77 41.96 42.80 44.33 45.05 46.57 49.64 52.81 56.72 55.32 45.16 44.91 37.22 37.42 39.63 51.48 53.95 56.32 58.27 59.53 49.53
39.51 39.83 38.79 39.57 39.83 40.43 42.60 42.86 43.48 44.97 43.78 42.34 40.11 39.46 36.48 37.06 42.13 43.51 45.19 49.47 54.93 58.35
MSLP
1018.13 1018.14 1018.54 1018.86 1019.06 1019.55 1019.89 1020.32 1020.79 1021.10 1021.67 1022.11 1022.51 1022.97 1023.49 1023.97 1024.27 1024.51 1024.61 1025.06 1025.45 1025.63
1018.80 1018.52 1018.69 1018.86 1019.04 1019.20 1019.39 1019.72 1020.15 1020.48 1020.96 1021.51 1021.89 1022.20 1022.70 1023.13 1023.45 1023.85 1024.01 1024.15 1024.57 1024.84
1019.24 1019.05 1018.99 1018.80 1019.01 1019.13 1019.06 1019.23 1019.52 1019.94 1020.24 1020.72 1021.13 1021.47 1021.95 1022.42 1022.55 1023.00 1023.26 1023.34 1023.58 1023.90
1019.94 1019.26 1019.06 1018.90 1018.70 1018.85 1018.91 1019.05 1019.13 1019.18 1019.61 1020.03 1020.43 1020.71 1021.22 1021.45 1021.81 1022.22 1022.21 1022.56 1022.67 1022.64
1020.50 1019.78 1019.23 1018.99 1018.92 1018.68 1018.58 1018.54 1018.84 1018.90 1019.24 1019.41 1019.59 1020.09 1020.37 1020.64 1020.92 1021.22 1021.44 1021.43 1021.84 1021.88
1020.97 1020.13 1019.82 1019.07 1018.90 1018.69 1018.55 1018.26 1018.26 1018.54 1018.60 1018.77 1019.01 1019.22 1019.55 1019.70 1020.04 1020.28 1020.29 1020.43 1020.66 1020.62
1021.21 1020.46 1019.66 1019.30 1018.88 1018.51 1018.25 1018.10 1017.78 1017.90 1018.05 1018.07 1018.10 1018.23 1018.50 1018.85 1019.10 1019.24 1019.36 1019.45 1019.71 1019.74
1020.70 1020.30 1019.72 1019.14 1018.56 1018.29 1017.87 1017.66 1017.45 1017.24 1017.34 1017.48 1017.49 1017.51 1017.78 1017.99 1018.09 1018.10 1018.23 1018.28 1018.43 1018.45
1020.31 1019.81 1019.22 1018.71 1018.38 1018.04 1017.56 1017.22 1016.98 1016.64 1016.57 1016.55 1016.67 1016.72 1016.83 1016.89 1017.06 1017.04 1016.96 1016.91 1016.95 1017.14
1020.02 1019.50 1018.71 1018.18 1017.71 1017.39 1017.36 1017.14 1016.63 1016.08 1015.75 1015.67 1015.79 1015.95 1016.04 1015.97 1016.10 1015.95 1015.74 1015.70 1015.75 1015.80
1019.32 1018.91 1018.42 1017.92 1017.37 1017.08 1016.94 1016.70 1016.21 1015.55 1015.07 1014.98 1015.03 1015.25 1015.23 1015.01 1015.30 1015.13 1014.92 1014.84 1014.82 1014.77
1018.83 1018.44 1018.04 1017.64 1017.17 1016.80 1016.49 1016.06 1015.49 1014.80 1014.44 1014.51 1014.78 1015.33 1015.40 1015.45 1015.38 1014.83 1014.43 1014.13 1013.91 1013.85
1018.71 1018.29 1018.37 1018.16 1017.51 1017.08 1016.67 1015.86 1015.09 1014.37 1014.49 1015.14 1016.03 1016.18 1015.99 1015.69 1014.99 1014.55 1014.13 1013.59 1013.24 1013.09
1019.62 1019.04 1019.20 1018.83 1018.00 1017.57 1017.14 1016.42 1016.05 1015.72 1015.99 1016.29 1016.84 1016.67 1016.76 1016.39 1015.92 1015.62 1014.80 1013.91 1013.24 1012.67
Wind_Speed
5 5 5 7 7 8 8 10 10 11 10 11 10 9 8 7 8 9 10 10 9 8
8 4 6 6 5 6 7 7 10 12 12 11 10 11 11 9 10 9 11 11 10 9
6 6 7 5 6 7 8 7 10 11 12 12 11 11 12 10 10 11 10 10 11 11
7 6 4 7 5 8 7 8 10 11 13 13 12 13 13 13 13 13 14 12 12 15
9 7 5 4 6 5 7 7 10 9 11 12 13 13 13 14 14 15 14 16 14 15
8 7 7 6 6 5 6 8 8 11 11 12 13 14 14 15 14 15 16 16 16 17
9 9 8 8 8 6 5 8 8 9 12 13 14 14 15 14 14 15 15 16 15 16
9 8 8 8 8 8 7 7 9 10 11 12 11 10 13 14 15 16 16 16 16 17
9 9 8 7 8 7 6 8 9 10 11 13 11 13 17 15 14 16 16 16 17 17
10 9 8 7 8 8 8 9 11 13 13 14 15 15 18 20 15 15 15 16 16 15
10 11 8 8 8 11 10 10 11 14 17 16 14 15 19 21 16 16 17 16 16 17
10 10 10 9 8 8 9 10 10 12 14 15 14 9 12 7 11 12 16 15 16 17
9 8 9 9 7 7 7 7 6 5 7 16 10 20 19 15 4 8 9 12 14 16
9 8 8 7 6 7 6 6 8 9 11 12 11 12 19 16 8 7 7 6 8 8
Wind_Direction
231 207 209 205 183 185 191 197 186 193 201 205 191 190 185 200 208 207 204 201 208 213
9 237 217 208 209 204 194 186 187 194 202 206 201 198 194 204 210 206 209 213 211 217
20 22 347 214 204 218 219 203 184 193 204 206 206 202 201 212 215 209 218 218 213 221
339 5 12 341 219 206 217 217 208 200 204 211 211 209 205 213 217 217 224 224 220 225
328 334 343 354 348 264 215 211 225 215 214 214 213 218 213 217 218 220 225 227 225 232
318 326 311 325 309 305 296 222 215 231 223 219 217 219 221 219 223 227 228 230 227 230
299 302 304 303 291 288 284 286 218 222 232 230 221 217 219 222 226 227 231 233 233 235
296 286 277 276 287 286 270 263 254 228 229 237 234 221 218 221 226 228 232 234 235 235
299 290 282 271 266 259 282 293 282 251 240 239 236 230 220 219 227 228 229 234 235 240
296 291 290 289 283 286 288 287 285 272 253 246 244 227 230 223 230 235 236 237 239 241
306 302 293 283 280 276 271 266 271 272 253 251 249 227 228 232 231 241 244 245 247 246
309 300 296 292 286 285 273 266 261 263 249 248 252 336 354 297 261 249 250 251 247 245
348 352 344 324 326 327 310 289 312 286 34 45 81 40 25 6 261 255 264 261 255 246
9 20 6 348 5 355 350 25 21 48 44 44 39 31 18 14 10 357 315 311 308 290